"generation_time";"collections_public";"objects_public";"images_public";"resouces_public";"transcriptions_public";"museum_records_public";"collection_records_public";"object_records_public";"literature";"exhibitions_public";"appointments_public";"series_public";"events";"links";"institution_faq_entries";"distinct_persinst";"distinct_places";"distinct_times";"distinct_tags";"avg_puqi_public"
"2020-10-07";"2";"18";"45";"0";"0";"0";"0";"0";"0";"2";"0";"3";"24";"0";"0";"14451";"1517";"6957";"30";"202.4"
"2020-10-08";"2";"18";"45";"0";"0";"0";"0";"0";"0";"2";"0";"3";"24";"0";"0";"14451";"1517";"6957";"30";"202.4"
"2020-10-09";"2";"18";"45";"0";"0";"0";"0";"0";"0";"2";"0";"3";"24";"0";"0";"14451";"1517";"6957";"30";"204.1"
"2020-10-10";"2";"18";"45";"0";"0";"0";"0";"0";"0";"2";"0";"3";"24";"0";"0";"14445";"1519";"6958";"30";"204.1"
"2020-10-11";"2";"18";"45";"0";"0";"0";"0";"0";"0";"2";"0";"3";"24";"0";"0";"14446";"1519";"6958";"30";"204.1"
"2020-10-12";"2";"18";"45";"0";"0";"0";"0";"0";"0";"2";"0";"3";"24";"0";"0";"14446";"1519";"6958";"30";"204.1"
"2020-10-13";"2";"19";"46";"0";"0";"0";"0";"0";"0";"2";"0";"3";"24";"0";"0";"14445";"1519";"6958";"30";"202.6"
"2020-10-14";"2";"19";"46";"0";"0";"0";"0";"0";"0";"2";"0";"3";"26";"0";"0";"14445";"1519";"6958";"30";"203.0"
"2020-10-15";"2";"20";"48";"0";"0";"0";"0";"0";"0";"2";"0";"8";"31";"0";"0";"14446";"1520";"6958";"35";"200.8"
"2020-10-16";"2";"20";"48";"0";"0";"0";"0";"0";"0";"2";"0";"8";"31";"0";"0";"14449";"1523";"6958";"47";"200.8"
"2020-10-17";"2";"22";"53";"0";"0";"0";"0";"0";"0";"2";"0";"8";"44";"0";"0";"14448";"1521";"6958";"51";"201.7"
"2020-10-18";"2";"22";"53";"0";"0";"0";"0";"0";"0";"2";"0";"8";"48";"0";"0";"14446";"1522";"6958";"61";"201.7"
"2020-10-19";"2";"22";"53";"0";"0";"0";"0";"0";"0";"2";"0";"10";"53";"0";"0";"14447";"1522";"6958";"68";"201.7"
"2020-10-20";"2";"22";"53";"0";"0";"0";"0";"0";"0";"2";"0";"10";"53";"0";"0";"14447";"1522";"6958";"68";"201.7"
"2020-10-21";"2";"22";"53";"0";"0";"0";"0";"0";"0";"2";"0";"10";"90";"0";"0";"14447";"1522";"6958";"73";"202.4"
"2020-10-22";"2";"22";"53";"0";"0";"0";"0";"0";"0";"2";"0";"10";"90";"0";"0";"14444";"1522";"6958";"73";"202.4"
"2020-10-23";"2";"22";"53";"0";"0";"0";"0";"0";"0";"2";"0";"10";"90";"0";"0";"14443";"1522";"6958";"73";"202.4"
"2020-10-24";"2";"24";"57";"0";"0";"0";"0";"0";"0";"2";"0";"10";"90";"0";"0";"14443";"1522";"6958";"73";"202.4"
"2020-10-25";"2";"24";"57";"0";"0";"0";"0";"0";"0";"2";"0";"10";"90";"0";"0";"14443";"1522";"6958";"73";"202.4"
"2020-10-26";"2";"24";"57";"0";"0";"0";"0";"0";"0";"2";"0";"10";"90";"0";"0";"14441";"1522";"6958";"73";"202.4"
"2020-10-27";"2";"24";"57";"0";"0";"0";"0";"0";"0";"2";"0";"10";"90";"0";"0";"14440";"1522";"6958";"73";"202.4"
"2020-10-28";"2";"24";"57";"0";"0";"0";"0";"0";"0";"2";"0";"10";"90";"0";"0";"14440";"1524";"6959";"73";"202.4"
"2020-10-29";"2";"24";"57";"0";"0";"0";"0";"0";"0";"2";"0";"10";"90";"0";"0";"14438";"1524";"6959";"73";"202.4"
"2020-10-30";"2";"24";"57";"0";"0";"0";"0";"0";"0";"2";"0";"10";"90";"0";"0";"14431";"1524";"6959";"73";"202.4"
"2020-10-31";"2";"24";"57";"0";"0";"0";"0";"0";"0";"2";"0";"10";"90";"0";"0";"14430";"1526";"6962";"73";"202.4"
"2020-11-01";"2";"24";"57";"0";"0";"0";"0";"0";"0";"2";"0";"10";"90";"0";"0";"14430";"1526";"6962";"73";"202.4"
"2020-11-02";"2";"24";"57";"0";"0";"0";"0";"0";"0";"2";"0";"10";"90";"0";"0";"14430";"1523";"6962";"73";"202.4"
"2020-11-03";"2";"24";"57";"0";"0";"0";"0";"0";"0";"2";"0";"10";"90";"0";"0";"14430";"1523";"6962";"73";"202.4"
"2020-11-04";"2";"24";"57";"0";"0";"0";"0";"0";"0";"2";"0";"10";"90";"0";"0";"14430";"1523";"6964";"73";"202.4"
"2020-11-05";"2";"27";"64";"0";"0";"0";"0";"0";"0";"2";"0";"10";"92";"0";"0";"14432";"1523";"6968";"73";"202.2"
"2020-11-06";"2";"27";"64";"0";"0";"0";"0";"0";"0";"2";"0";"10";"92";"0";"0";"14433";"1523";"6968";"73";"202.2"
"2020-11-07";"2";"27";"64";"0";"0";"0";"0";"0";"0";"2";"0";"10";"92";"0";"0";"14437";"1523";"6968";"73";"202.2"
"2020-11-08";"2";"27";"64";"0";"0";"0";"0";"0";"0";"2";"0";"10";"92";"0";"0";"14437";"1523";"6968";"73";"202.2"
"2020-11-09";"2";"27";"64";"0";"0";"0";"0";"0";"0";"2";"0";"10";"92";"0";"0";"14437";"1523";"6968";"73";"202.2"
"2020-11-10";"2";"27";"64";"0";"0";"0";"0";"0";"0";"2";"0";"10";"92";"0";"0";"14439";"1524";"6970";"73";"202.2"
"2020-11-11";"2";"27";"64";"0";"0";"0";"0";"0";"0";"2";"0";"10";"92";"0";"0";"14440";"1524";"6971";"73";"202.2"
"2020-11-12";"2";"27";"64";"0";"0";"0";"0";"0";"0";"2";"0";"10";"92";"0";"0";"14441";"1524";"6971";"73";"202.2"
"2020-11-13";"2";"27";"64";"0";"0";"0";"0";"0";"0";"2";"0";"10";"92";"0";"0";"14441";"1524";"6972";"73";"202.2"
"2020-11-14";"2";"27";"64";"0";"0";"0";"0";"0";"0";"2";"0";"10";"92";"0";"0";"14441";"1524";"6972";"73";"202.2"
"2020-11-15";"2";"27";"64";"0";"0";"0";"0";"0";"0";"2";"0";"10";"92";"0";"0";"14438";"1524";"6972";"73";"202.2"
"2020-11-16";"2";"27";"64";"0";"0";"0";"0";"0";"0";"2";"0";"10";"92";"0";"0";"14438";"1524";"6972";"73";"202.2"
"2020-11-17";"2";"27";"64";"0";"0";"0";"0";"0";"0";"2";"0";"10";"92";"0";"0";"14439";"1524";"6972";"73";"202.2"
"2020-11-18";"2";"27";"64";"0";"0";"0";"0";"0";"0";"2";"0";"10";"92";"0";"0";"14444";"1525";"6973";"73";"202.2"
"2020-11-19";"2";"27";"64";"0";"0";"0";"0";"0";"0";"2";"0";"10";"92";"0";"0";"14445";"1525";"6973";"73";"202.2"
"2020-11-20";"2";"27";"64";"0";"0";"0";"0";"0";"0";"2";"0";"10";"92";"0";"0";"14445";"1525";"6973";"73";"202.2"
"2020-11-21";"2";"27";"64";"0";"0";"0";"0";"0";"0";"2";"0";"10";"92";"0";"0";"14444";"1525";"6974";"73";"202.2"
"2020-11-22";"2";"27";"64";"0";"0";"0";"0";"0";"0";"2";"0";"10";"92";"0";"0";"14442";"1525";"6974";"73";"202.2"
"2020-11-23";"2";"27";"64";"0";"0";"0";"0";"0";"0";"2";"0";"10";"92";"0";"0";"14442";"1525";"6974";"73";"202.2"
"2020-11-24";"2";"27";"64";"0";"0";"0";"0";"0";"0";"2";"0";"10";"92";"0";"0";"14442";"1525";"6974";"73";"202.2"
"2020-11-25";"2";"27";"64";"0";"0";"0";"0";"0";"0";"2";"0";"10";"92";"0";"0";"14439";"1526";"6974";"73";"202.2"
"2020-11-26";"2";"27";"64";"0";"0";"0";"0";"0";"0";"2";"0";"10";"92";"0";"0";"14442";"1529";"6976";"73";"202.2"
"2020-11-27";"2";"27";"64";"0";"0";"0";"0";"0";"0";"2";"0";"10";"92";"0";"0";"14443";"1529";"6976";"73";"202.2"
"2020-12-01";"2";"27";"64";"0";"0";"0";"0";"0";"0";"2";"0";"10";"92";"0";"0";"14442";"1531";"6987";"73";"202.2"
"2020-12-02";"2";"27";"64";"0";"0";"0";"0";"0";"0";"2";"0";"10";"92";"0";"0";"14444";"1532";"6987";"73";"202.2"
"2020-12-03";"2";"27";"64";"0";"0";"0";"0";"0";"0";"2";"0";"10";"92";"0";"0";"14447";"1535";"6990";"73";"202.2"
"2020-12-04";"2";"27";"64";"0";"0";"0";"0";"0";"0";"2";"0";"10";"92";"0";"0";"14447";"1535";"6990";"73";"202.2"
"2020-12-05";"2";"27";"64";"0";"0";"0";"0";"0";"0";"2";"0";"10";"92";"0";"0";"14450";"1535";"6993";"73";"202.2"
"2020-12-06";"2";"27";"64";"0";"0";"0";"0";"0";"0";"2";"0";"10";"92";"0";"0";"14451";"1533";"6993";"73";"202.2"
"2020-12-07";"2";"27";"64";"0";"0";"0";"0";"0";"0";"2";"0";"10";"92";"0";"0";"14449";"1533";"6993";"73";"202.2"
"2020-12-09";"2";"27";"64";"0";"0";"0";"0";"0";"0";"2";"0";"10";"92";"0";"0";"14450";"1533";"6995";"73";"202.2"
"2020-12-10";"2";"27";"64";"0";"0";"0";"0";"0";"0";"2";"0";"10";"92";"0";"0";"14448";"1533";"6995";"73";"202.2"
"2020-12-11";"2";"27";"64";"0";"0";"0";"0";"0";"0";"2";"0";"10";"92";"0";"0";"14448";"1533";"6995";"73";"202.2"
"2020-12-12";"2";"27";"64";"0";"0";"0";"0";"0";"0";"2";"0";"10";"92";"0";"0";"14446";"1533";"6995";"73";"202.2"
"2020-12-13";"2";"27";"64";"0";"0";"0";"0";"0";"0";"2";"0";"10";"92";"0";"0";"14443";"1532";"6995";"73";"202.2"
"2020-12-14";"2";"27";"64";"0";"0";"0";"0";"0";"0";"2";"0";"10";"92";"0";"0";"14441";"1532";"6995";"73";"202.2"
"2020-12-16";"2";"27";"64";"0";"0";"0";"0";"0";"0";"2";"0";"10";"92";"0";"0";"14448";"1533";"6996";"73";"202.2"
"2020-12-17";"2";"27";"64";"0";"0";"0";"0";"0";"0";"2";"0";"10";"92";"0";"0";"14447";"1533";"6996";"73";"202.2"
"2020-12-18";"2";"27";"64";"0";"0";"0";"0";"0";"0";"2";"0";"10";"92";"0";"0";"14445";"1533";"6996";"73";"202.2"
"2020-12-19";"2";"27";"64";"0";"0";"0";"0";"0";"0";"2";"0";"10";"92";"0";"0";"14447";"1533";"6995";"73";"202.2"
"2020-12-20";"2";"27";"64";"0";"0";"0";"0";"0";"0";"2";"0";"10";"92";"0";"0";"14447";"1533";"6995";"73";"202.2"
"2020-12-21";"2";"27";"64";"0";"0";"0";"0";"0";"0";"2";"0";"10";"92";"0";"0";"14453";"1532";"6995";"73";"202.2"
"2020-12-23";"2";"27";"64";"0";"0";"0";"0";"0";"0";"2";"0";"10";"92";"0";"0";"14466";"1536";"6995";"73";"202.2"
"2020-12-24";"2";"27";"64";"0";"0";"0";"0";"0";"0";"2";"0";"10";"92";"0";"0";"14541";"1538";"6995";"73";"202.2"
"2020-12-25";"2";"27";"64";"0";"0";"0";"0";"0";"0";"2";"0";"10";"92";"0";"0";"14540";"1538";"6995";"72";"202.2"
"2020-12-26";"2";"27";"64";"0";"0";"0";"0";"0";"0";"2";"0";"10";"92";"0";"0";"14536";"1537";"6995";"72";"202.2"
"2020-12-27";"2";"27";"64";"0";"0";"0";"0";"0";"0";"2";"0";"10";"92";"0";"0";"14535";"1537";"6995";"72";"202.2"
"2020-12-28";"2";"27";"64";"0";"0";"0";"0";"0";"0";"2";"0";"10";"92";"0";"0";"14535";"1537";"6993";"72";"202.2"
"2020-12-30";"2";"27";"64";"0";"0";"0";"0";"0";"0";"2";"0";"10";"92";"0";"0";"14530";"1537";"6992";"72";"202.2"
"2020-12-31";"2";"27";"64";"0";"0";"0";"0";"0";"0";"2";"0";"10";"92";"0";"0";"14533";"1538";"6992";"72";"202.2"
"2021-01-01";"2";"27";"64";"0";"0";"0";"0";"0";"0";"2";"0";"10";"92";"0";"0";"14533";"1538";"6992";"72";"202.2"
"2021-01-02";"2";"27";"64";"0";"0";"0";"0";"0";"0";"2";"0";"10";"92";"0";"0";"14530";"1538";"6992";"72";"202.2"
"2021-01-03";"2";"27";"64";"0";"0";"0";"0";"0";"0";"2";"0";"10";"92";"0";"0";"14529";"1538";"6992";"72";"202.2"
"2021-01-04";"2";"27";"64";"0";"0";"0";"0";"0";"0";"2";"0";"10";"92";"0";"0";"14528";"1538";"6992";"72";"202.2"
"2021-01-05";"2";"27";"64";"0";"0";"0";"0";"0";"0";"2";"0";"10";"92";"0";"0";"14523";"1538";"6992";"72";"202.2"
"2021-01-06";"2";"27";"64";"0";"0";"0";"0";"0";"0";"2";"0";"10";"92";"0";"0";"14520";"1538";"6992";"72";"202.2"
"2021-01-07";"2";"27";"64";"0";"0";"0";"0";"0";"0";"2";"0";"10";"92";"0";"0";"14533";"1538";"6993";"72";"202.2"
"2021-01-10";"2";"27";"64";"0";"0";"0";"0";"0";"0";"2";"0";"10";"92";"0";"0";"14532";"1538";"6993";"72";"202.2"
"2021-01-11";"2";"27";"64";"0";"0";"0";"0";"0";"0";"2";"0";"10";"92";"0";"0";"14532";"1538";"6993";"72";"202.2"
"2021-01-12";"2";"27";"64";"0";"0";"0";"0";"0";"0";"2";"0";"10";"92";"0";"0";"14533";"1538";"6993";"72";"202.2"
"2021-01-13";"2";"27";"64";"0";"0";"0";"0";"0";"0";"2";"0";"10";"92";"0";"0";"14533";"1538";"6993";"72";"202.2"
"2021-01-14";"2";"28";"65";"0";"0";"0";"0";"0";"0";"2";"0";"10";"93";"0";"0";"14535";"1539";"6993";"72";"202.4"
"2021-01-16";"2";"38";"78";"0";"0";"0";"0";"0";"0";"2";"0";"10";"97";"0";"0";"14536";"1540";"6993";"75";"200.4"
"2021-01-20";"2";"45";"99";"0";"0";"0";"0";"0";"0";"2";"0";"10";"104";"0";"0";"14538";"1542";"6993";"78";"200.9"
"2021-01-21";"2";"47";"105";"0";"0";"0";"0";"0";"0";"2";"0";"10";"104";"0";"0";"14538";"1542";"6993";"78";"201.4"
"2021-01-22";"2";"49";"107";"0";"0";"0";"0";"0";"0";"2";"0";"10";"104";"0";"0";"14538";"1542";"6993";"78";"201.1"
"2021-01-23";"2";"49";"107";"0";"0";"0";"0";"0";"0";"2";"0";"10";"104";"0";"0";"14538";"1542";"6993";"78";"201.1"
"2021-01-24";"2";"53";"117";"0";"0";"0";"0";"0";"0";"2";"0";"10";"104";"0";"0";"14535";"1541";"6993";"78";"202.3"
"2021-01-25";"2";"54";"119";"0";"0";"0";"0";"0";"0";"2";"0";"10";"104";"0";"0";"14536";"1541";"6993";"78";"201.9"
"2021-01-26";"2";"54";"119";"0";"0";"0";"0";"0";"0";"2";"0";"10";"104";"0";"0";"14539";"1541";"6994";"78";"201.9"
"2021-01-27";"2";"54";"119";"0";"0";"0";"0";"0";"0";"2";"0";"10";"104";"0";"0";"14539";"1543";"6995";"78";"201.9"
"2021-01-28";"2";"54";"119";"0";"0";"0";"0";"0";"0";"2";"0";"10";"104";"0";"0";"14539";"1543";"6995";"78";"201.9"
"2021-01-29";"2";"58";"128";"0";"0";"0";"0";"0";"0";"2";"0";"10";"104";"0";"0";"14544";"1543";"6995";"78";"202.2"
"2021-02-01";"2";"65";"145";"0";"0";"0";"0";"0";"0";"2";"0";"10";"108";"0";"0";"14543";"1544";"6990";"79";"202.4"
"2021-02-02";"2";"65";"145";"0";"0";"0";"0";"0";"0";"2";"0";"10";"108";"0";"0";"14544";"1544";"6990";"79";"202.4"
"2021-02-05";"2";"65";"145";"0";"0";"0";"0";"0";"0";"2";"0";"10";"108";"0";"0";"14544";"1544";"6990";"79";"202.4"
"2021-02-07";"2";"71";"152";"0";"0";"0";"0";"0";"0";"2";"0";"10";"108";"0";"0";"14545";"1545";"6990";"79";"201.8"
"2021-02-08";"2";"71";"152";"0";"0";"0";"0";"0";"0";"2";"0";"10";"108";"0";"0";"14541";"1545";"6990";"79";"201.8"
"2021-02-09";"2";"71";"152";"0";"0";"0";"0";"0";"0";"2";"0";"10";"108";"0";"0";"14541";"1546";"6990";"79";"201.8"
"2021-02-12";"2";"71";"152";"0";"0";"0";"0";"0";"0";"2";"0";"10";"229";"0";"0";"14541";"1546";"6992";"78";"201.8"
"2021-02-13";"2";"71";"152";"0";"0";"0";"0";"0";"0";"2";"0";"10";"229";"0";"0";"14541";"1546";"6992";"78";"201.8"
"2021-02-14";"2";"71";"152";"0";"0";"0";"0";"0";"0";"2";"0";"10";"229";"0";"0";"14782";"1636";"6995";"78";"201.8"
"2021-02-15";"2";"71";"152";"0";"0";"0";"0";"0";"0";"2";"0";"10";"229";"0";"0";"14780";"1636";"6995";"78";"201.8"
"2021-02-16";"2";"71";"152";"0";"0";"0";"0";"0";"0";"2";"0";"10";"229";"0";"0";"14780";"1635";"6995";"78";"201.8"
"2021-02-17";"2";"71";"152";"0";"0";"0";"0";"0";"0";"2";"0";"10";"229";"0";"0";"14780";"1633";"6995";"78";"201.8"
"2021-02-18";"2";"71";"152";"0";"0";"0";"0";"0";"0";"2";"0";"10";"229";"0";"0";"14780";"1633";"6995";"78";"201.8"
"2021-02-19";"2";"71";"152";"0";"0";"0";"0";"0";"0";"2";"0";"10";"229";"0";"0";"14780";"1633";"6995";"78";"201.8"
"2021-02-20";"2";"71";"152";"0";"0";"0";"0";"0";"0";"2";"0";"10";"229";"0";"0";"14780";"1631";"6995";"78";"201.8"
"2021-02-21";"2";"71";"152";"0";"0";"0";"0";"0";"0";"2";"0";"10";"229";"0";"0";"14779";"1631";"6995";"78";"201.8"
"2021-02-22";"2";"71";"152";"0";"0";"0";"0";"0";"0";"2";"0";"10";"229";"0";"0";"14778";"1631";"6995";"78";"201.8"
"2021-02-23";"2";"71";"152";"0";"0";"0";"0";"0";"0";"2";"0";"10";"229";"0";"0";"14778";"1631";"6995";"78";"201.8"
"2021-02-24";"2";"71";"152";"0";"0";"0";"0";"0";"0";"2";"0";"10";"229";"0";"0";"14778";"1631";"6996";"78";"201.8"
"2021-02-25";"2";"71";"152";"0";"0";"0";"0";"0";"0";"2";"0";"10";"229";"0";"0";"14771";"1626";"6993";"78";"201.8"
"2021-02-27";"2";"71";"152";"0";"0";"0";"0";"0";"0";"2";"0";"10";"229";"0";"0";"14772";"1626";"6995";"78";"201.8"
"2021-02-28";"2";"71";"152";"0";"0";"0";"0";"0";"0";"2";"0";"10";"229";"0";"0";"14773";"1626";"6995";"78";"201.8"
"2021-03-01";"2";"71";"152";"0";"0";"0";"0";"0";"0";"2";"0";"10";"229";"0";"0";"14767";"1626";"6995";"46";"201.8"
"2021-03-02";"2";"71";"152";"0";"0";"0";"0";"0";"0";"2";"0";"10";"229";"0";"0";"14767";"1626";"6995";"46";"201.8"
"2021-03-03";"2";"71";"152";"0";"0";"0";"0";"0";"0";"2";"0";"10";"229";"0";"0";"14769";"1627";"6996";"46";"201.8"
"2021-03-04";"2";"71";"152";"0";"0";"0";"0";"0";"0";"2";"0";"10";"229";"0";"0";"14771";"1629";"6998";"46";"201.8"
"2021-03-05";"2";"72";"153";"0";"0";"0";"0";"0";"0";"2";"0";"10";"229";"0";"0";"14771";"1629";"6998";"46";"201.6"
"2021-03-06";"2";"73";"155";"0";"0";"0";"0";"0";"0";"2";"0";"10";"232";"0";"0";"14772";"1629";"6998";"46";"202.5"
"2021-03-07";"2";"75";"162";"0";"0";"0";"0";"0";"0";"2";"0";"10";"235";"0";"0";"14773";"1630";"6997";"47";"203.9"
"2021-03-08";"2";"75";"161";"0";"0";"0";"0";"0";"0";"2";"0";"10";"235";"0";"0";"14773";"1630";"6997";"47";"203.9"
"2021-03-09";"2";"75";"161";"0";"0";"0";"0";"0";"0";"2";"0";"10";"235";"0";"0";"14774";"1630";"6997";"47";"203.9"
"2021-03-11";"2";"76";"164";"0";"0";"0";"0";"0";"0";"2";"0";"10";"243";"0";"0";"14773";"1630";"6996";"47";"210.1"
"2021-03-13";"2";"76";"164";"0";"0";"0";"0";"0";"0";"2";"0";"10";"243";"0";"0";"14771";"1630";"6996";"47";"210.1"
"2021-03-14";"2";"76";"164";"0";"0";"0";"0";"0";"0";"2";"0";"10";"243";"0";"0";"14767";"1630";"6996";"47";"210.1"
"2021-03-15";"3";"84";"180";"0";"0";"0";"0";"0";"0";"2";"0";"10";"249";"0";"0";"14766";"1629";"6996";"48";"209.4"
"2021-03-16";"3";"84";"180";"0";"0";"0";"0";"0";"0";"2";"0";"10";"249";"0";"0";"14766";"1629";"6996";"48";"209.4"
"2021-03-17";"3";"84";"180";"0";"0";"0";"0";"0";"0";"2";"0";"10";"249";"0";"0";"14767";"1630";"6997";"48";"209.4"
"2021-03-18";"3";"84";"180";"0";"0";"0";"0";"0";"0";"2";"0";"10";"249";"0";"0";"14767";"1631";"6997";"48";"209.4"
"2021-03-19";"3";"84";"180";"0";"0";"0";"0";"0";"0";"2";"0";"10";"249";"0";"0";"14768";"1631";"6999";"48";"209.4"
"2021-03-21";"3";"84";"180";"0";"0";"0";"0";"0";"0";"2";"0";"10";"249";"0";"0";"14803";"1631";"6999";"48";"209.4"
"2021-03-22";"3";"84";"180";"0";"0";"0";"0";"0";"0";"2";"0";"10";"249";"0";"0";"14802";"1631";"6998";"48";"209.4"
"2021-03-23";"3";"84";"180";"0";"0";"0";"0";"0";"0";"2";"0";"10";"249";"0";"0";"14802";"1631";"6998";"48";"209.4"
"2021-03-24";"3";"84";"180";"0";"0";"0";"0";"0";"0";"2";"0";"10";"249";"0";"0";"14804";"1631";"6998";"48";"209.4"
"2021-03-25";"3";"84";"180";"0";"0";"0";"0";"0";"0";"2";"0";"10";"249";"0";"0";"14822";"1634";"6999";"48";"209.4"
"2021-03-26";"3";"84";"180";"0";"0";"0";"0";"0";"0";"2";"0";"10";"249";"0";"0";"14822";"1634";"6999";"48";"209.4"
"2021-03-27";"3";"84";"180";"0";"0";"0";"0";"0";"0";"2";"0";"10";"249";"0";"0";"14823";"1634";"7000";"48";"209.4"
"2021-03-28";"3";"84";"180";"0";"0";"0";"0";"0";"0";"2";"0";"10";"249";"0";"0";"14824";"1633";"6999";"48";"209.4"
"2021-03-29";"3";"84";"180";"0";"0";"0";"0";"0";"0";"2";"0";"10";"249";"0";"0";"14824";"1633";"6999";"48";"209.4"
"2021-03-30";"3";"84";"180";"0";"0";"0";"0";"0";"0";"2";"0";"10";"249";"0";"0";"14827";"1632";"6999";"48";"209.4"
"2021-03-31";"3";"84";"180";"0";"0";"0";"0";"0";"0";"2";"0";"10";"249";"0";"0";"14827";"1632";"6999";"48";"209.4"
"2021-04-01";"3";"84";"180";"0";"0";"0";"0";"0";"0";"2";"0";"10";"249";"0";"0";"14830";"1635";"7003";"48";"209.4"
"2021-04-02";"3";"84";"180";"0";"0";"0";"0";"0";"0";"2";"0";"10";"249";"0";"0";"14830";"1635";"7003";"48";"209.4"
"2021-04-03";"3";"84";"180";"0";"0";"0";"0";"0";"0";"2";"0";"10";"249";"0";"0";"14828";"1633";"7003";"48";"209.4"
"2021-04-04";"3";"84";"180";"0";"0";"0";"0";"0";"0";"2";"0";"10";"249";"0";"0";"14828";"1633";"7003";"48";"209.4"
"2021-04-05";"3";"84";"180";"0";"0";"0";"0";"0";"0";"2";"0";"10";"249";"0";"0";"14828";"1633";"7003";"48";"209.4"
"2021-04-06";"3";"84";"180";"0";"0";"0";"0";"0";"0";"2";"0";"10";"249";"0";"0";"14828";"1633";"7003";"48";"209.4"
"2021-04-07";"3";"84";"180";"0";"0";"0";"0";"0";"0";"2";"0";"10";"249";"0";"0";"14829";"1633";"7004";"48";"209.4"
"2021-04-08";"3";"84";"180";"0";"0";"0";"0";"0";"0";"2";"0";"10";"249";"0";"0";"14829";"1635";"7006";"48";"209.4"
"2021-04-09";"3";"84";"180";"0";"0";"0";"0";"0";"0";"2";"0";"10";"249";"0";"0";"14830";"1636";"7005";"48";"209.4"
"2021-04-10";"3";"84";"180";"0";"0";"0";"0";"0";"0";"2";"0";"10";"249";"0";"0";"14829";"1636";"7005";"48";"209.4"
"2021-04-11";"3";"84";"180";"0";"0";"0";"0";"0";"0";"2";"0";"10";"249";"0";"0";"14829";"1636";"7005";"48";"209.4"
"2021-04-12";"3";"84";"180";"0";"0";"0";"0";"0";"0";"2";"0";"10";"249";"0";"0";"14829";"1636";"7005";"48";"209.4"
"2021-04-13";"3";"84";"180";"0";"0";"0";"0";"0";"0";"2";"0";"10";"249";"0";"0";"14829";"1636";"7005";"48";"209.4"
"2021-04-14";"3";"84";"180";"0";"0";"0";"0";"0";"0";"2";"0";"10";"249";"0";"0";"14829";"1636";"7005";"48";"209.4"
"2021-04-15";"3";"84";"180";"0";"0";"0";"0";"0";"0";"2";"0";"10";"249";"0";"0";"14827";"1636";"7005";"48";"209.4"
"2021-04-16";"3";"84";"180";"0";"0";"0";"0";"0";"0";"2";"0";"10";"249";"0";"0";"14827";"1636";"7005";"48";"209.4"
"2021-04-17";"3";"84";"180";"0";"0";"0";"0";"0";"0";"2";"0";"10";"249";"0";"0";"14826";"1636";"7006";"48";"209.4"
"2021-04-18";"3";"84";"180";"0";"0";"0";"0";"0";"0";"2";"0";"10";"249";"0";"0";"14827";"1638";"7013";"48";"209.4"
"2021-04-19";"3";"84";"180";"0";"0";"0";"0";"0";"0";"2";"0";"10";"249";"0";"0";"14827";"1639";"7015";"48";"209.4"
"2021-04-20";"3";"84";"180";"0";"0";"0";"0";"0";"0";"2";"0";"10";"249";"0";"0";"14826";"1639";"7015";"48";"209.4"
"2021-04-21";"3";"84";"180";"0";"0";"0";"0";"0";"0";"2";"0";"10";"249";"0";"0";"14827";"1639";"7016";"48";"209.4"
"2021-04-22";"3";"84";"180";"0";"0";"0";"0";"0";"0";"2";"0";"10";"249";"0";"0";"14826";"1640";"7016";"48";"209.4"
"2021-04-23";"3";"84";"180";"0";"0";"0";"0";"0";"0";"2";"0";"10";"249";"0";"0";"14830";"1640";"7019";"48";"209.4"
"2021-04-24";"3";"84";"180";"0";"0";"0";"0";"0";"0";"2";"0";"10";"249";"0";"0";"14830";"1640";"7019";"48";"209.4"
"2021-04-25";"3";"84";"180";"0";"0";"0";"0";"0";"0";"2";"0";"10";"249";"0";"0";"14827";"1640";"7019";"48";"209.4"
"2021-04-26";"3";"84";"180";"0";"0";"0";"0";"0";"0";"2";"0";"10";"249";"0";"0";"14829";"1641";"7024";"48";"209.4"
"2021-04-27";"3";"84";"180";"0";"0";"0";"0";"0";"0";"2";"0";"10";"249";"0";"0";"14834";"1641";"7024";"48";"209.4"
"2021-04-28";"3";"84";"180";"0";"0";"0";"0";"0";"0";"2";"0";"10";"249";"0";"0";"14834";"1641";"7024";"48";"209.4"
"2021-04-29";"3";"84";"180";"0";"0";"0";"0";"0";"0";"2";"0";"10";"249";"0";"0";"14834";"1642";"7025";"48";"209.4"
"2021-04-30";"3";"84";"180";"0";"0";"0";"0";"0";"0";"2";"0";"10";"249";"0";"0";"14836";"1645";"7026";"48";"209.4"
"2021-05-01";"3";"84";"180";"0";"0";"0";"0";"0";"0";"2";"0";"10";"249";"0";"0";"14834";"1645";"7026";"48";"209.4"
"2021-05-02";"3";"84";"180";"0";"0";"0";"0";"0";"0";"2";"0";"10";"249";"0";"0";"14832";"1645";"7028";"48";"209.4"
"2021-05-03";"3";"84";"180";"0";"0";"0";"0";"0";"0";"2";"0";"10";"249";"0";"0";"14832";"1645";"7028";"48";"209.4"
"2021-05-04";"3";"84";"180";"0";"0";"0";"0";"0";"0";"2";"0";"10";"249";"0";"0";"14832";"1645";"7028";"48";"209.4"
"2021-05-05";"3";"84";"180";"0";"0";"0";"0";"0";"0";"2";"0";"10";"249";"0";"0";"14830";"1647";"7028";"48";"209.4"
"2021-05-06";"3";"84";"180";"0";"0";"0";"0";"0";"0";"2";"0";"10";"249";"0";"0";"14828";"1647";"7028";"48";"209.4"
"2021-05-07";"3";"84";"180";"0";"0";"0";"0";"0";"0";"2";"0";"10";"249";"0";"0";"14827";"1648";"7031";"48";"209.4"
"2021-05-08";"3";"84";"180";"0";"0";"0";"0";"0";"0";"2";"0";"10";"249";"0";"0";"14827";"1648";"7031";"48";"209.4"
"2021-05-09";"3";"84";"180";"0";"0";"0";"0";"0";"0";"2";"0";"10";"249";"0";"0";"14827";"1648";"7031";"48";"209.4"
"2021-05-10";"3";"84";"180";"0";"0";"0";"0";"0";"0";"2";"0";"10";"249";"0";"0";"14827";"1648";"7034";"48";"209.4"
"2021-05-11";"3";"84";"180";"0";"0";"0";"0";"0";"0";"2";"0";"10";"249";"0";"0";"14827";"1649";"7035";"48";"209.4"
"2021-05-12";"3";"84";"180";"0";"0";"0";"0";"0";"0";"2";"0";"10";"249";"0";"0";"14827";"1649";"7035";"48";"209.4"
"2021-05-13";"3";"84";"180";"0";"0";"0";"0";"0";"0";"2";"0";"10";"249";"0";"0";"14825";"1649";"7035";"48";"209.4"
"2021-05-14";"3";"84";"180";"0";"0";"0";"0";"0";"0";"2";"0";"10";"249";"0";"0";"14822";"1649";"7036";"48";"209.4"
"2021-05-15";"3";"84";"180";"0";"0";"0";"0";"0";"0";"2";"0";"10";"249";"0";"0";"14822";"1649";"7036";"48";"209.4"
"2021-05-17";"3";"84";"180";"0";"0";"0";"0";"0";"0";"2";"0";"10";"249";"0";"0";"14823";"1650";"7036";"48";"209.4"
"2021-05-18";"3";"84";"180";"0";"0";"0";"0";"0";"0";"2";"0";"10";"613";"0";"0";"14913";"1650";"7065";"50";"209.4"
"2021-05-19";"3";"84";"180";"0";"0";"0";"0";"0";"0";"2";"0";"10";"403";"0";"0";"14910";"1651";"7067";"50";"209.4"
"2021-05-20";"3";"84";"180";"0";"0";"0";"0";"0";"0";"2";"0";"10";"403";"0";"0";"14910";"1651";"7067";"50";"209.4"
"2021-05-21";"3";"84";"180";"0";"0";"0";"0";"0";"0";"2";"0";"10";"403";"0";"0";"14912";"1656";"7067";"50";"209.4"
"2021-05-22";"3";"84";"180";"0";"0";"0";"0";"0";"0";"2";"0";"10";"404";"0";"0";"14913";"1656";"7071";"50";"209.4"
"2021-05-23";"3";"84";"180";"0";"0";"0";"0";"0";"0";"2";"0";"10";"404";"0";"0";"14905";"1656";"7071";"50";"209.4"
"2021-05-24";"3";"84";"180";"0";"0";"0";"0";"0";"0";"2";"0";"10";"404";"0";"0";"14900";"1656";"7071";"50";"209.4"
"2021-05-25";"3";"84";"180";"0";"0";"0";"0";"0";"0";"2";"0";"10";"404";"0";"0";"14889";"1656";"7071";"50";"209.4"
"2021-05-26";"3";"84";"180";"0";"0";"0";"0";"0";"0";"2";"0";"10";"404";"0";"0";"14887";"1656";"7071";"50";"209.4"
"2021-05-27";"3";"84";"180";"0";"0";"0";"0";"0";"0";"2";"0";"10";"403";"0";"0";"14883";"1656";"7075";"50";"209.4"